Location: Unspecified
(0.0000°N, 0.0000°E)
Time: 09:50:47
(UTC+00:00)

Vanguard 3 - Pass Details

Date: 10 December 2017
Orbit: 508 x 3264 km, 33.3° (Epoch: 24 June)

Event Time Altitude Azimuth Distance (km) Brightness Sun altitude
Exits shadow 00:29:08 32° 213° (SSW) 4,377 10.7 -65.4°
Maximum altitude 00:30:51 32° 204° (SSW) 4,417 10.8 -65.3°
Drops below altitude 10° 00:47:32 10° 148° (SSE) 6,153 11.9 -63.5°
Sets 00:53:13 0° 138° (SE) 7,015 12.3 -62.8°
